User: anonymous   Login
Location: Newark
(48.8604°N, 2.3376°E)
Time: 11:59:42
(UTC+00:00)
Language:

VELOX 1 - Orbit

View from above orbital plane
View from above orbital plane
View from above satellite
View from above satellite

Ground track
Ground track

The orbit data is extracted from the following two-line orbital elements,

1 40057U 14034E   21340.12060393  .00000879  00000-0  12837-3 0  9990
2 40057  98.3455 140.3019 0010049 224.1013 135.9387 14.78399728400904
Epoch (UTC): 06 December 2021 02:53:40
Eccentricity: 0.0010049
inclination: 98.3455°
perigee height: 627 km
apogee height: 641 km
right ascension of ascending node: 140.3019°
argument of perigee: 224.1013°
revolutions per day: 14.78399728
mean anomaly at epoch: 135.9387°
orbit number at epoch: 40090

The dashed part of the orbit path shows where the satellite is in the earth's shadow,  

DLR